Погода в Ильинском-Хованском

Россия / Ивановская область     56°58′17″N   39°46′17″E
темп.,
°C
ветер,
м/с
пор.,
м/с
влажн.,
%
обл.,
%
осадки,
мм/ч
давл.,
гПа
погр.,
м
15 мая, сб
сб1500:00+12вюв489697 2.9 1014182
03:00+13юв41197100 2.9 1012254
06:00+15вюв4598100 6.0 1010114
09:00+18ююв81688100 6.9 1010606
12:00+23ююв71270100 1.1 1009894
15:00+20ю71179100 9.6 1008801
18:00+19ююз611845 3.6 1008723
21:00+15ю514890 4.2 1009403
16 мая, вс
вс1600:00+13ю411945 0.0 1010264
03:00+12ю410961 0.0 1010247
06:00+13ююз5119516 0.0 1010400
09:00+17ююз698014 0.0 1011742
12:00+20ююз796636 0.2 10121570
15:00+20юз710715 1.5 10121305
18:00+18юз597797 0.8 1012633
21:00+15юз379066 0.8 1013115
17 мая, пн
пн1700:00+13юз36940 0.0 1014103
03:00+12юз33945 0.0 101540
06:00+14ююз239186 0.0 101696
09:00+18ю23768 0.0 1016489
12:00+22ююв346071 0.0 10161171
15:00+23ююв455650 0.0 10151203
18:00+23вюв35705 0.0 1014294
21:00+17в411857 0.3 1013171
18 мая, вт
вт1800:00+15юв410935 0.0 1013153
03:00+14юв49925 0.0 1012139
06:00+16юв5138572 0.0 1011250
09:00+21юв613675 0.0 1011529
12:00+25юв7125614 0.0 1010921
15:00+26юв711535 0.0 10091234
18:00+23юв713583 0.0 1008403
21:00+20юв716665 0.0 1008468
19 мая, ср
ср1900:00+18юв6147595 0.0 1007348
03:00+16юв48916 0.0 1007165
06:00+16юв3790100 0.0 1007221
09:00+19юв5877100 0.0 1006361
12:00+23ююв7136287 0.0 10061642
15:00+20ю51072100 0.3 1004543
18:00+16ююв10178383 0.8 1003993
21:00+15ююв613873 0.8 1003630